User: anonymous   Login
Location: Gradaro
(45.0833°N, 10.8833°E)
Time: 07:18:07
(UTC+00:00)
Language:

USA 306 - Orbit

View from above orbital plane
View from above orbital plane
View from above satellite
View from above satellite

Ground track
Ground track

The orbit data is extracted from the following two-line orbital elements,

1 45874U 20046B   21056.81565812 0.00002400  00000-0  19839-3 0    02
2 45874  53.9826  29.1732 0008988 160.8607 199.1392 14.98458032    06
Epoch (UTC): 25 February 2021 19:34:32
Eccentricity: 0.0008988
inclination: 53.9826°
perigee height: 565 km
apogee height: 578 km
right ascension of ascending node: 29.1732°
argument of perigee: 160.8607°
revolutions per day: 14.98458032
mean anomaly at epoch: 199.1392°
orbit number at epoch: 0

The dashed part of the orbit path shows where the satellite is in the earth's shadow,  

DLR